Update 04.10.19: Almanach/History: Die WU Grafiken funktionieren wieder!!
Besuchen Sie den Menüpunkt "Almanach / History" WU-Grafiken um Wetterdaten über die Jahre zu vergleichen!
Die Daten stammen von meiner Wetterstation und wurden von Weatherunderground aufgezeichnet.

Rindlberg West Mehr Informationen Rindlberg West


Stuetzi - Rindlberg Ost Mehr Informationen Stuetzi - Rindlberg Ost


Regenradar Mehr Informationen rain snow radar


Sie finden meine Wetter-Infos auch auf:

Weather Underground

AWEKAS



Wählen sie eine andere Periode ( ausblenden )

Einheiten Zeitraum Benutzerdef. Zeitraum Direkt zu
metrisch Englisch Beide
Täglich Wöchentlich Monatlich Jährlich
Beide Datumseingaben nutzen um einen Bereich festzulegen
vorheriger Tag
Mit diesem Datum

WU Grafiken für diese Periode ( klicken )


Täglich Zusammenfassung für Freitag 18 Oktober 2019
Zeit Temp. ( °C ) Taupt. ( °C ) Wind ( km/h ) von Windböen ( km/h ) Luftdruck ( hPa ) Luftf.( % ) Regenrate ( cm )
Hoch17,5 9,8 14,5 SO ( 124/534 ) 16,1 1017,8 95 -
Durchchnittswerte7,8 3,9 2,9 Windstille #103/185 5,0 1016,7 78 -
Tief2,6 0,2 -   0,0 1015,8 49 -
Täglich tabellarische Details für Freitag 18 Oktober 2019
Zeit Temp. ( °C ) Taupt. ( °C ) Wind ( km/h ) von Windböen ( km/h ) Luftdruck ( hPa ) Luftf.( % ) Regenrate ( cm )
00:00 4,9 2,3   Windstille 4,8 1016,8 83 -
00:05 4,8 2,0 4,8 Norden   1016,8 82 -
00:10 4,7 1,9 4,8 Norden 4,8 1016,8 82 -
00:15 4,5 1,7   Windstille 6,4 1016,8 82 -
00:20 4,4 1,6 4,8 Norden 6,4 1016,8 82 -
00:25 4,4 1,8 8,0 NNW 6,4 1016,8 83 -
00:30 4,4 1,8 4,8 Norden 8,0 1016,8 83 -
00:35 4,3 1,7 3,2 Norden 8,0 1016,8 83 -
00:40 4,2 1,6   Windstille 8,0 1016,8 83 -
00:45 4,2 1,6 6,4 Norden 6,4 1016,8 83 -
00:50 4,1 1,5 4,8 Norden 4,8 1016,8 83 -
00:55 4,2 1,6   Windstille 6,4 1016,8 83 -
01:00 4,2 1,7   Windstille 6,4 1016,8 84 -
01:05 4,2 1,7 6,4 Norden 6,4 1016,8 84 -
01:10 4,2 1,7 3,2 Norden 6,4 1016,8 84 -
01:15 4,2 1,7 3,2 Norden 6,4 1016,8 84 -
01:20 4,2 1,7 4,8 Norden 6,4 1016,8 84 -
01:25 4,1 1,6   Windstille 6,4 1016,8 84 -
01:30 4,0 1,4   Windstille 4,8 1016,8 83 -
01:35 3,9 1,3   Windstille 4,8 1016,8 83 -
01:40 3,7 1,1   Windstille 3,2 1016,8 83 -
01:45 3,6 1,0   Windstille   1016,8 83 -
01:50 3,5 0,9   Windstille   1016,8 83 -
01:55 3,5 0,9   Windstille   1016,8 83 -
02:00 3,4 0,8   Windstille   1016,8 83 -
02:05 3,4 0,8   Windstille   1016,8 83 -
02:10 3,3 0,7 4,8 Norden   1016,8 83 -
02:15 3,3 0,7   Windstille   1016,8 83 -
02:20 3,3 0,7   Windstille 4,8 1016,8 83 -
02:25 3,2 0,6 4,8 Norden 4,8 1016,8 83 -
02:30 3,2 0,8 4,8 Norden 4,8 1016,8 84 -
02:35 3,2 0,8   Windstille 4,8 1016,8 84 -
02:40 3,1 0,7   Windstille 4,8 1016,8 84 -
02:45 3,1 0,5   Windstille 4,8 1016,8 83 -
02:50 3,0 0,4   Windstille   1016,8 83 -
02:55 3,0 0,4   Windstille   1016,8 83 -
03:00 3,1 0,7   Windstille   1016,8 84 -
03:05 3,0 0,4   Windstille   1016,8 83 -
03:10 3,1 0,7   Windstille   1016,8 84 -
03:15 3,1 0,7   Windstille   1016,8 84 -
03:20 3,1 0,7   Windstille   1016,8 84 -
03:25 3,3 0,9   Windstille   1016,8 84 -
03:30 3,4 1,0   Windstille   1016,8 84 -
03:35 3,5 1,4   Windstille   1016,8 86 -
03:40 3,5 1,4   Windstille   1016,8 86 -
03:45 3,5 1,1   Windstille   1016,8 84 -
03:50 3,5 1,1   Windstille   1016,8 84 -
03:55 3,4 0,8   Windstille   1016,8 83 -
04:00 3,4 0,8   Windstille   1016,8 83 -
04:05 3,3 0,5   Windstille   1015,8 82 -
04:10 3,4 0,8   Windstille   1015,8 83 -
04:15 3,4 0,8   Windstille   1015,8 83 -
04:20 3,3 0,7   Windstille   1016,8 83 -
04:25 3,3 0,7   Windstille   1016,8 83 -
04:30 3,3 0,7   Windstille   1016,8 83 -
04:35 3,3 0,7   Windstille   1016,8 83 -
04:40 3,6 1,2   Windstille   1016,8 84 -
04:45 3,8 1,7   Windstille   1016,8 86 -
04:50 3,8 1,7   Windstille   1016,8 86 -
04:55 3,7 1,6   Windstille   1016,8 86 -
05:00 3,7 1,6   Windstille   1016,8 86 -
05:05 3,6 1,5   Windstille   1016,8 86 -
05:10 3,6 1,2   Windstille   1016,8 84 -
05:15 3,5 1,1   Windstille   1016,8 84 -
05:20 3,5 1,1   Windstille   1016,8 84 -
05:25 3,6 1,5   Windstille   1016,8 86 -
05:30 3,5 1,4   Windstille 4,8 1016,8 86 -
05:35 3,5 1,4   Windstille 4,8 1016,8 86 -
05:40 3,5 1,4   Windstille 4,8 1016,8 86 -
05:45 3,5 1,4   Windstille   1016,8 86 -
05:50 3,4 1,3   Windstille   1016,8 86 -
05:55 3,4 1,3 3,2 Norden   1016,8 86 -
06:00 3,4 1,3 4,8 Norden 4,8 1016,8 86 -
06:05 3,3 1,2   Windstille 4,8 1016,8 86 -
06:10 3,3 1,2   Windstille 4,8 1016,8 86 -
06:15 3,2 1,1   Windstille 4,8 1016,8 86 -
06:20 3,2 1,1   Windstille   1016,8 86 -
06:25 3,1 1,0   Windstille   1016,8 86 -
06:30 3,0 0,6   Windstille   1016,8 84 -
06:35 2,9 0,5   Windstille   1016,8 84 -
06:40 2,8 0,4   Windstille   1016,8 84 -
06:45 2,7 0,3   Windstille   1016,8 84 -
06:50 2,7 0,3   Windstille   1016,8 84 -
06:55 2,6 0,2   Windstille   1016,8 84 -
07:00 2,7 0,3 3,2 Norden   1016,8 84 -
07:05 2,7 0,3 6,4 Norden 4,8 1016,8 84 -
07:10 2,8 0,7   Windstille 6,4 1016,8 86 -
07:15 2,8 0,7   Windstille 6,4 1016,8 86 -
07:20 2,8 0,7   Windstille 6,4 1016,8 86 -
07:25 2,8 0,9   Windstille 4,8 1016,8 87 -
07:30 2,8 0,9   Windstille 4,8 1016,8 87 -
07:35 2,8 0,7   Windstille 4,8 1016,8 86 -
07:40 2,7 0,6   Windstille   1016,8 86 -
07:45 2,7 0,6   Windstille   1016,8 86 -
07:50 2,7 0,6   Windstille   1016,8 86 -
07:55 2,6 0,2   Windstille   1016,8 84 -
08:00 2,6 0,2   Windstille   1016,8 84 -
08:05 2,6 0,5 6,4 NNW   1016,8 86 -
08:10 2,8 0,7 3,2 NNW 6,4 1016,8 86 -
08:15 3,0 1,0   Windstille 6,4 1016,8 87 -
08:20 3,0 1,0   Windstille 6,4 1016,8 87 -
08:25 3,2 1,4   Windstille 6,4 1016,8 88 -
08:30 3,3 1,5   Windstille   1016,8 88 -
08:35 3,4 1,6   Windstille   1016,8 88 -
08:40 3,7 2,1   Windstille   1016,8 89 -
08:45 3,8 2,2   Windstille   1016,8 89 -
08:50 3,9 2,3   Windstille   1016,8 89 -
08:55 4,2 2,5   Windstille   1016,8 89 -
09:00 4,4 2,9 4,8 NNW   1016,8 90 -
09:05 4,6 3,1   Windstille 4,8 1016,8 90 -
09:10 4,8 3,5   Windstille 4,8 1016,8 91 -
09:15 5,0 3,7   Windstille 4,8 1016,8 91 -
09:20 5,3 4,0   Windstille 4,8 1016,8 91 -
09:25 5,6 4,4   Windstille 4,8 1016,8 92 -
09:30 6,1 4,9   Windstille 4,8 1016,8 92 -
09:35 6,6 5,7   Windstille   1016,8 94 -
09:40 7,2 6,0   Windstille   1016,8 92 -
09:45 7,8 6,9   Windstille   1016,8 94 -
09:50 8,2 7,3   Windstille   1016,8 94 -
09:55 8,6 7,8   Windstille 8,0 1016,8 95 -
10:00 9,0 8,2   Windstille 8,0 1016,8 95 -
10:05 9,2 8,4   Windstille 8,0 1016,8 95 -
10:10 9,4 8,6   Windstille   1016,8 95 -
10:15 9,6 8,8 4,8 ONO 3,2 1016,8 95 -
10:20 9,8 8,9   Windstille 4,8 1016,8 94 -
10:25 10,1 8,9 4,8 ONO 4,8 1016,8 92 -
10:30 10,5 8,8 6,4 OSO 4,8 1016,8 89 -
10:35 11,2 9,1 4,8 SO 6,4 1016,8 87 -
10:40 11,8 9,2 6,4 SO 6,4 1016,8 84 -
10:45 12,6 9,6 3,2 SO 6,4 1016,8 82 -
10:50 13,2 9,8 3,2 SSO 8,0 1016,8 80 -
10:55 13,7 9,5 4,8 Süden 8,0 1016,8 76 -
11:00 14,0 9,4 4,8 SSW 8,0 1016,8 74 -
11:05 14,2 9,2 6,4 SSW 8,0 1017,8 72 -
11:10 14,3 9,1 4,8 OSO 6,4 1017,8 71 -
11:15 14,5 9,5 4,8 Süden 6,4 1017,8 72 -
11:20 14,6 9,2 4,8 Süden 6,4 1016,8 70 -
11:25 14,8 9,4 6,4 SW 8,0 1016,8 70 -
11:30 14,9 9,3 4,8 Süden 8,0 1016,8 69 -
11:35 15,0 8,9 4,8 OSO 8,0 1016,8 67 -
11:40 15,1 9,0 4,8 Süden 8,0 1016,8 67 -
11:45 15,4 9,5 4,8 Süden 8,0 1016,8 68 -
11:50 15,5 9,2 6,4 SSO 6,4 1016,8 66 -
11:55 15,6 8,8 6,4 SSO 6,4 1016,8 64 -
12:00 15,8 9,0 8,0 SSW 8,0 1016,8 64 -
12:05 16,0 9,0 4,8 SSO 8,0 1016,8 63 -
12:10 16,1 9,1 4,8 SSW 8,0 1016,8 63 -
12:15 16,2 8,9 4,8 SO 8,0 1016,8 62 -
12:20 16,3 9,0   Windstille 8,0 1016,8 62 -
12:25 16,5 9,0 4,8 Süden 8,0 1016,8 61 -
12:30 16,5 8,2 4,8 SO 8,0 1016,8 58 -
12:35 16,3 7,8 6,4 OSO 9,7 1016,8 57 -
12:40 16,4 8,4 12,9 SO 9,7 1016,8 59 -
12:45 16,5 8,2 4,8 OSO 9,7 1016,8 58 -
12:50 16,7 8,1 8,0 SO 12,9 1016,8 57 -
12:55 16,7 7,9 6,4 SO 12,9 1016,8 56 -
13:00 16,9 8,1 4,8 WSW 11,3 1016,8 56 -
13:05 16,9 7,8 4,8 SO 8,0 1016,8 55 -
13:10 17,1 7,7 8,0 Süden 12,9 1016,8 54 -
13:15 17,2 8,1 6,4 SSW 12,9 1016,8 55 -
13:20 17,3 8,2 6,4 Süden 12,9 1015,8 55 -
13:25 17,3 8,2 9,7 SW 9,7 1015,8 55 -
13:30 17,4 8,5 8,0 SSW 11,3 1015,8 56 -
13:35 17,4 8,3 9,7 SSW 11,3 1015,8 55 -
13:40 17,4 8,3 6,4 SW 11,3 1015,8 55 -
13:45 17,4 8,3 6,4 SW 11,3 1015,8 55 -
13:50 17,4 8,5 9,7 SW 11,3 1015,8 56 -
13:55 17,5 8,6 9,7 SSW 9,7 1015,8 56 -
14:00 17,4 8,8 8,0 Süden 12,9 1015,8 57 -
14:05 17,5 8,9 8,0 SSO 12,9 1015,8 57 -
14:10 17,5 8,4 12,9 SO 12,9 1015,8 55 -
14:15 17,4 8,0 12,9 SO 12,9 1015,8 54 -
14:20 17,3 7,3 9,7 SO 16,1 1015,8 52 -
14:25 17,4 7,4 9,7 Osten 16,1 1015,8 52 -
14:30 17,2 7,0 9,7 OSO 16,1 1015,8 51 -
14:35 17,3 7,1 14,5 SO 16,1 1015,8 51 -
14:40 17,1 6,3 12,9 ONO 14,5 1015,8 49 -
14:45 17,0 6,5 8,0 OSO 14,5 1015,8 50 -
14:50 17,0 6,2 9,7 OSO 14,5 1015,8 49 -
14:55 16,9 6,4 11,3 SO 14,5 1015,8 50 -
15:00 16,9 6,7 9,7 OSO 14,5 1015,8 51 -
15:05 17,1 6,9 9,7 Süden 14,5 1015,8 51 -
15:10 17,3 7,3 4,8 Süden 12,9 1015,8 52 -
15:15 17,5 7,8 6,4 SO 12,9 1015,8 53 -
15:20 17,5 7,5 8,0 SSW 9,7 1015,8 52 -
Täglich Zusammenfassung für Freitag 18 Oktober 2019
Zeit Temp. ( °C ) Taupt. ( °C ) Wind ( km/h ) von Windböen ( km/h ) Luftdruck ( hPa ) Luftf.( % ) Regenrate ( cm )
Hoch17,5 9,8 14,5 SO ( 124/534 ) 16,1 1017,8 95 -
Durchchnittswerte7,8 3,9 2,9 Windstille #103/185 5,0 1016,7 78 -
Tief2,6 0,2 -   0,0 1015,8 49 -
Täglich tabellarische Details für Freitag 18 Oktober 2019
Zeit Temp. ( °C ) Taupt. ( °C ) Wind ( km/h ) von Windböen ( km/h ) Luftdruck ( hPa ) Luftf.( % ) Regenrate ( cm )
00:00 4,9 2,3   Windstille 4,8 1016,8 83 -
00:05 4,8 2,0 4,8 Norden   1016,8 82 -
00:10 4,7 1,9 4,8 Norden 4,8 1016,8 82 -
00:15 4,5 1,7   Windstille 6,4 1016,8 82 -
00:20 4,4 1,6 4,8 Norden 6,4 1016,8 82 -
00:25 4,4 1,8 8,0 NNW 6,4 1016,8 83 -
00:30 4,4 1,8 4,8 Norden 8,0 1016,8 83 -
00:35 4,3 1,7 3,2 Norden 8,0 1016,8 83 -
00:40 4,2 1,6   Windstille 8,0 1016,8 83 -
00:45 4,2 1,6 6,4 Norden 6,4 1016,8 83 -
00:50 4,1 1,5 4,8 Norden 4,8 1016,8 83 -
00:55 4,2 1,6   Windstille 6,4 1016,8 83 -
01:00 4,2 1,7   Windstille 6,4 1016,8 84 -
01:05 4,2 1,7 6,4 Norden 6,4 1016,8 84 -
01:10 4,2 1,7 3,2 Norden 6,4 1016,8 84 -
01:15 4,2 1,7 3,2 Norden 6,4 1016,8 84 -
01:20 4,2 1,7 4,8 Norden 6,4 1016,8 84 -
01:25 4,1 1,6   Windstille 6,4 1016,8 84 -
01:30 4,0 1,4   Windstille 4,8 1016,8 83 -
01:35 3,9 1,3   Windstille 4,8 1016,8 83 -
01:40 3,7 1,1   Windstille 3,2 1016,8 83 -
01:45 3,6 1,0   Windstille   1016,8 83 -
01:50 3,5 0,9   Windstille   1016,8 83 -
01:55 3,5 0,9   Windstille   1016,8 83 -
02:00 3,4 0,8   Windstille   1016,8 83 -
02:05 3,4 0,8   Windstille   1016,8 83 -
02:10 3,3 0,7 4,8 Norden   1016,8 83 -
02:15 3,3 0,7   Windstille   1016,8 83 -
02:20 3,3 0,7   Windstille 4,8 1016,8 83 -
02:25 3,2 0,6 4,8 Norden 4,8 1016,8 83 -
02:30 3,2 0,8 4,8 Norden 4,8 1016,8 84 -
02:35 3,2 0,8   Windstille 4,8 1016,8 84 -
02:40 3,1 0,7   Windstille 4,8 1016,8 84 -
02:45 3,1 0,5   Windstille 4,8 1016,8 83 -
02:50 3,0 0,4   Windstille   1016,8 83 -
02:55 3,0 0,4   Windstille   1016,8 83 -
03:00 3,1 0,7   Windstille   1016,8 84 -
03:05 3,0 0,4   Windstille   1016,8 83 -
03:10 3,1 0,7   Windstille   1016,8 84 -
03:15 3,1 0,7   Windstille   1016,8 84 -
03:20 3,1 0,7   Windstille   1016,8 84 -
03:25 3,3 0,9   Windstille   1016,8 84 -
03:30 3,4 1,0   Windstille   1016,8 84 -
03:35 3,5 1,4   Windstille   1016,8 86 -
03:40 3,5 1,4   Windstille   1016,8 86 -
03:45 3,5 1,1   Windstille   1016,8 84 -
03:50 3,5 1,1   Windstille   1016,8 84 -
03:55 3,4 0,8   Windstille   1016,8 83 -
04:00 3,4 0,8   Windstille   1016,8 83 -
04:05 3,3 0,5   Windstille   1015,8 82 -
04:10 3,4 0,8   Windstille   1015,8 83 -
04:15 3,4 0,8   Windstille   1015,8 83 -
04:20 3,3 0,7   Windstille   1016,8 83 -
04:25 3,3 0,7   Windstille   1016,8 83 -
04:30 3,3 0,7   Windstille   1016,8 83 -
04:35 3,3 0,7   Windstille   1016,8 83 -
04:40 3,6 1,2   Windstille   1016,8 84 -
04:45 3,8 1,7   Windstille   1016,8 86 -
04:50 3,8 1,7   Windstille   1016,8 86 -
04:55 3,7 1,6   Windstille   1016,8 86 -
05:00 3,7 1,6   Windstille   1016,8 86 -
05:05 3,6 1,5   Windstille   1016,8 86 -
05:10 3,6 1,2   Windstille   1016,8 84 -
05:15 3,5 1,1   Windstille   1016,8 84 -
05:20 3,5 1,1   Windstille   1016,8 84 -
05:25 3,6 1,5   Windstille   1016,8 86 -
05:30 3,5 1,4   Windstille 4,8 1016,8 86 -
05:35 3,5 1,4   Windstille 4,8 1016,8 86 -
05:40 3,5 1,4   Windstille 4,8 1016,8 86 -
05:45 3,5 1,4   Windstille   1016,8 86 -
05:50 3,4 1,3   Windstille   1016,8 86 -
05:55 3,4 1,3 3,2 Norden   1016,8 86 -
06:00 3,4 1,3 4,8 Norden 4,8 1016,8 86 -
06:05 3,3 1,2   Windstille 4,8 1016,8 86 -
06:10 3,3 1,2   Windstille 4,8 1016,8 86 -
06:15 3,2 1,1   Windstille 4,8 1016,8 86 -
06:20 3,2 1,1   Windstille   1016,8 86 -
06:25 3,1 1,0   Windstille   1016,8 86 -
06:30 3,0 0,6   Windstille   1016,8 84 -
06:35 2,9 0,5   Windstille   1016,8 84 -
06:40 2,8 0,4   Windstille   1016,8 84 -
06:45 2,7 0,3   Windstille   1016,8 84 -
06:50 2,7 0,3   Windstille   1016,8 84 -
06:55 2,6 0,2   Windstille   1016,8 84 -
07:00 2,7 0,3 3,2 Norden   1016,8 84 -
07:05 2,7 0,3 6,4 Norden 4,8 1016,8 84 -
07:10 2,8 0,7   Windstille 6,4 1016,8 86 -
07:15 2,8 0,7   Windstille 6,4 1016,8 86 -
07:20 2,8 0,7   Windstille 6,4 1016,8 86 -
07:25 2,8 0,9   Windstille 4,8 1016,8 87 -
07:30 2,8 0,9   Windstille 4,8 1016,8 87 -
07:35 2,8 0,7   Windstille 4,8 1016,8 86 -
07:40 2,7 0,6   Windstille   1016,8 86 -
07:45 2,7 0,6   Windstille   1016,8 86 -
07:50 2,7 0,6   Windstille   1016,8 86 -
07:55 2,6 0,2   Windstille   1016,8 84 -
08:00 2,6 0,2   Windstille   1016,8 84 -
08:05 2,6 0,5 6,4 NNW   1016,8 86 -
08:10 2,8 0,7 3,2 NNW 6,4 1016,8 86 -
08:15 3,0 1,0   Windstille 6,4 1016,8 87 -
08:20 3,0 1,0   Windstille 6,4 1016,8 87 -
08:25 3,2 1,4   Windstille 6,4 1016,8 88 -
08:30 3,3 1,5   Windstille   1016,8 88 -
08:35 3,4 1,6   Windstille   1016,8 88 -
08:40 3,7 2,1   Windstille   1016,8 89 -
08:45 3,8 2,2   Windstille   1016,8 89 -
08:50 3,9 2,3   Windstille   1016,8 89 -
08:55 4,2 2,5   Windstille   1016,8 89 -
09:00 4,4 2,9 4,8 NNW   1016,8 90 -
09:05 4,6 3,1   Windstille 4,8 1016,8 90 -
09:10 4,8 3,5   Windstille 4,8 1016,8 91 -
09:15 5,0 3,7   Windstille 4,8 1016,8 91 -
09:20 5,3 4,0   Windstille 4,8 1016,8 91 -
09:25 5,6 4,4   Windstille 4,8 1016,8 92 -
09:30 6,1 4,9   Windstille 4,8 1016,8 92 -
09:35 6,6 5,7   Windstille   1016,8 94 -
09:40 7,2 6,0   Windstille   1016,8 92 -
09:45 7,8 6,9   Windstille   1016,8 94 -
09:50 8,2 7,3   Windstille   1016,8 94 -
09:55 8,6 7,8   Windstille 8,0 1016,8 95 -
10:00 9,0 8,2   Windstille 8,0 1016,8 95 -
10:05 9,2 8,4   Windstille 8,0 1016,8 95 -
10:10 9,4 8,6   Windstille   1016,8 95 -
10:15 9,6 8,8 4,8 ONO 3,2 1016,8 95 -
10:20 9,8 8,9   Windstille 4,8 1016,8 94 -
10:25 10,1 8,9 4,8 ONO 4,8 1016,8 92 -
10:30 10,5 8,8 6,4 OSO 4,8 1016,8 89 -
10:35 11,2 9,1 4,8 SO 6,4 1016,8 87 -
10:40 11,8 9,2 6,4 SO 6,4 1016,8 84 -
10:45 12,6 9,6 3,2 SO 6,4 1016,8 82 -
10:50 13,2 9,8 3,2 SSO 8,0 1016,8 80 -
10:55 13,7 9,5 4,8 Süden 8,0 1016,8 76 -
11:00 14,0 9,4 4,8 SSW 8,0 1016,8 74 -
11:05 14,2 9,2 6,4 SSW 8,0 1017,8 72 -
11:10 14,3 9,1 4,8 OSO 6,4 1017,8 71 -
11:15 14,5 9,5 4,8 Süden 6,4 1017,8 72 -
11:20 14,6 9,2 4,8 Süden 6,4 1016,8 70 -
11:25 14,8 9,4 6,4 SW 8,0 1016,8 70 -
11:30 14,9 9,3 4,8 Süden 8,0 1016,8 69 -
11:35 15,0 8,9 4,8 OSO 8,0 1016,8 67 -
11:40 15,1 9,0 4,8 Süden 8,0 1016,8 67 -
11:45 15,4 9,5 4,8 Süden 8,0 1016,8 68 -
11:50 15,5 9,2 6,4 SSO 6,4 1016,8 66 -
11:55 15,6 8,8 6,4 SSO 6,4 1016,8 64 -
12:00 15,8 9,0 8,0 SSW 8,0 1016,8 64 -
12:05 16,0 9,0 4,8 SSO 8,0 1016,8 63 -
12:10 16,1 9,1 4,8 SSW 8,0 1016,8 63 -
12:15 16,2 8,9 4,8 SO 8,0 1016,8 62 -
12:20 16,3 9,0   Windstille 8,0 1016,8 62 -
12:25 16,5 9,0 4,8 Süden 8,0 1016,8 61 -
12:30 16,5 8,2 4,8 SO 8,0 1016,8 58 -
12:35 16,3 7,8 6,4 OSO 9,7 1016,8 57 -
12:40 16,4 8,4 12,9 SO 9,7 1016,8 59 -
12:45 16,5 8,2 4,8 OSO 9,7 1016,8 58 -
12:50 16,7 8,1 8,0 SO 12,9 1016,8 57 -
12:55 16,7 7,9 6,4 SO 12,9 1016,8 56 -
13:00 16,9 8,1 4,8 WSW 11,3 1016,8 56 -
13:05 16,9 7,8 4,8 SO 8,0 1016,8 55 -
13:10 17,1 7,7 8,0 Süden 12,9 1016,8 54 -
13:15 17,2 8,1 6,4 SSW 12,9 1016,8 55 -
13:20 17,3 8,2 6,4 Süden 12,9 1015,8 55 -
13:25 17,3 8,2 9,7 SW 9,7 1015,8 55 -
13:30 17,4 8,5 8,0 SSW 11,3 1015,8 56 -
13:35 17,4 8,3 9,7 SSW 11,3 1015,8 55 -
13:40 17,4 8,3 6,4 SW 11,3 1015,8 55 -
13:45 17,4 8,3 6,4 SW 11,3 1015,8 55 -
13:50 17,4 8,5 9,7 SW 11,3 1015,8 56 -
13:55 17,5 8,6 9,7 SSW 9,7 1015,8 56 -
14:00 17,4 8,8 8,0 Süden 12,9 1015,8 57 -
14:05 17,5 8,9 8,0 SSO 12,9 1015,8 57 -
14:10 17,5 8,4 12,9 SO 12,9 1015,8 55 -
14:15 17,4 8,0 12,9 SO 12,9 1015,8 54 -
14:20 17,3 7,3 9,7 SO 16,1 1015,8 52 -
14:25 17,4 7,4 9,7 Osten 16,1 1015,8 52 -
14:30 17,2 7,0 9,7 OSO 16,1 1015,8 51 -
14:35 17,3 7,1 14,5 SO 16,1 1015,8 51 -
14:40 17,1 6,3 12,9 ONO 14,5 1015,8 49 -
14:45 17,0 6,5 8,0 OSO 14,5 1015,8 50 -
14:50 17,0 6,2 9,7 OSO 14,5 1015,8 49 -
14:55 16,9 6,4 11,3 SO 14,5 1015,8 50 -
15:00 16,9 6,7 9,7 OSO 14,5 1015,8 51 -
15:05 17,1 6,9 9,7 Süden 14,5 1015,8 51 -
15:10 17,3 7,3 4,8 Süden 12,9 1015,8 52 -
15:15 17,5 7,8 6,4 SO 12,9 1015,8 53 -
15:20 17,5 7,5 8,0 SSW 9,7 1015,8 52 -

Lade ein Kopie deiner Daten  here

Meine Wetterdaten gespeichert auf Weather Underground. Script entwickelt von Jim McMurry. Angepasst für das Template von Leuven-Template.eu